User: anonymous   Login
Location: Unspecified
(0.0000°N, 0.0000°E)
Time: 23:19:18
(UTC+00:00)
Language:

KINEIS-2A - Orbit

View from above orbital plane
View from above orbital plane
View from above satellite
View from above satellite

Ground track
Ground track

The orbit is defined by the following mean orbital elements,

1 62932U          26145.61564785 +.00000000 +00000-0 +18514-3 0 00007
2 62932  98.1311 200.9526 0003532 224.1586 135.9340 14.73313322    06
Epoch (UTC): 25 May 2026 14:46:31
Eccentricity: 0.0003532
inclination: 98.1311°
perigee height: 648 km
apogee height: 653 km
right ascension of ascending node: 200.9526°
argument of perigee: 224.1586°
revolutions per day: 14.73313322
mean anomaly at epoch: 135.9340°

The dashed part of the orbit path shows where the satellite is in the earth's shadow,  

DLR